AirNav   Air Wisconsin Up To $57,000 Bonus
 
 538 users online  

7M4 Osceola Municipal Airport
Osceola, Arkansas, USA

GOING TO OSCEOLA?


FAA INFORMATION EFFECTIVE 18 JULY 2019

Location

FAA Identifier: 7M4
Lat/Long: 35-41-28.1000N / 090-00-36.4000W
35-41.468333N / 090-00.606667W
35.6911389 / -90.0101111
(estimated)
Elevation: 234.7 ft. / 71.5 m (surveyed)
Variation: 02E (1985)
From city: 2 miles SW of OSCEOLA, AR
Time zone: UTC -5 (UTC -6 during Standard Time)
Zip code: 72370

Airport Operations

Airport use: Open to the public
Activation date: 10/1965
Control tower: no
ARTCC: MEMPHIS CENTER
FSS: JONESBORO FLIGHT SERVICE STATION
NOTAMs facility: JBR (NOTAM-D service available)
Attendance: UNATNDD
FOR ARPT ATTENDANT CALL 870-563-5993.
Wind indicator: lighted
Segmented circle: yes
Lights: ACTVT MIRL RY 01/19 & REIL RY 19 - CTAF.
Beacon: white-green (lighted land airport)
Operates sunset to sunrise.

Airport Communications

CTAF/UNICOM: 122.8
MEMPHIS APPROACH: 119.1
MEMPHIS DEPARTURE: 119.1
WX ASOS at HKA (17 nm NE): 135.025 (870-763-8206)

Nearby radio navigation aids

VOR radial/distance  VOR name  Freq  Var
JBRr111/30.2JONESBORO VOR/DME108.6000W
GQEr044/30.8GILMORE VOR/DME113.0004E
DYRr237/39.0DYERSBURG VORTAC116.8003E

Airport Services

Fuel available: 100LL
FUEL AVBL 24 HRS WITH CREDIT CARD.
Parking: hangars and tiedowns
Airframe service: NONE
Powerplant service: NONE
Bottled oxygen: NONE
Bulk oxygen: NONE

Runway Information

Runway 1/19

Dimensions: 3799 x 75 ft. / 1158 x 23 m
Surface: asphalt, in good condition
Weight bearing capacity: 
Single wheel: 8.5
Runway edge lights: medium intensity
RUNWAY 1  RUNWAY 19
Latitude: 35-41.159252N35-41.777922N
Longitude: 090-00.666283W090-00.547943W
Elevation: 234.3 ft.234.1 ft.
Traffic pattern: leftleft
Runway heading: 007 magnetic, 009 true187 magnetic, 189 true
Markings: basic, in good conditionnonprecision, in good condition
Runway end identifier lights: yes
Touchdown point: yes, no lightsyes, no lights
Obstructions: 20 ft. tree, 730 ft. from runway, 26:1 slope to clear31 ft. pole, lighted, 550 ft. from runway, 380 ft. left of centerline, 11:1 slope to clear

Airport Ownership and Management from official FAA records

Ownership: Publicly-owned
Owner: CITY OF OSCEOLA
PO BOX 403
OSCEOLA, AR 72370
Phone 870-563-5102
Manager: RUSS THOMASON
200 AIRPORT ROAD
OSCEOLA, AR 72370
Phone 870-563-5993

Airport Operational Statistics

Aircraft based on the field: 11
Single engine airplanes: 11
    
Aircraft operations: avg 36/day *
92% local general aviation
8% transient general aviation
<1% air taxi
* for 12-month period ending 31 August 2015

Additional Remarks

FOR CD CTC MEMPHIS APCH AT 901-842-8457.

Instrument Procedures

NOTE: All procedures below are presented as PDF files. If you need a reader for these files, you should download the free Adobe Reader.

NOT FOR NAVIGATION. Please procure official charts for flight.
FAA instrument procedures published for use from 18 July 2019 at 0901Z to 16 August 2019 at 0900Z.

 
IAPs - Instrument Approach Procedures
RNAV (GPS) RWY 19   download
NOTE: Special Take-Off Minimums/Departure Procedures apply   download (131KB)

Other nearby airports with instrument procedures:

KMXA - Manila Municipal Airport (14 nm NW)
KBYH - Arkansas International Airport (17 nm N)
KHKA - Blytheville Municipal Airport (17 nm NE)
KNQA - Millington-Memphis Airport (21 nm S)
M04 - Covington Municipal Airport (22 nm E)
 
Loc | Ops | Rwys | IFR | FBO | Links
Com | Nav | Svcs | Stats | Notes
Area around 7M4 (Osceola Municipal Airport)
 
Road maps at: MapQuest Bing Google
 
Aerial photo
WARNING: Photo may not be current or correct
Aerial photo of 7M4 (Osceola Municipal Airport)
Photo courtesy of the Arkansas Department of Aeronautics
Taken in the Spring of 2007

Do you have a better or more recent aerial photo of Osceola Municipal Airport that you would like to share? If so, please send us your photo.

 
Sectional chart

 
Airport distance calculator
Flying to Osceola Municipal Airport? Find the distance to fly.

From to 7M4

Sunrise and sunset
Times for 22-Jul-2019
 Local
(UTC-5)
 Zulu
(UTC)
Morning civil twilight05:3310:33
Sunrise06:0111:01
Sunset20:1101:11
Evening civil twilight20:4001:40

Current date and time
Zulu (UTC)  22-Jul-2019 05:39:30
Local (UTC-5)  22-Jul-2019 00:39:30
 
METAR
KHKA 
17nm NE 
220453Z AUTO 18003KT 9SM CLR 26/23 A2994 RMK AO2 SLP134 T02610233 $
KNQA 
22nm S 
220515Z AUTO 00000KT 8SM CLR 25/24 A2994 RMK A01
KM04 
22nm E 
220515Z AUTO 00000KT 10SM CLR 25/24 A2993 RMK A01
KTKX 
32nm N 
220515Z AUTO 20004KT 7SM FEW041 26/26 A2991 RMK AO2 LTG DSNT N
KJBR 
32nm W 
220453Z AUTO 21009KT 10SM CLR 28/24 A2992 RMK AO2 SLP129 T02780244 $
TAF
KJBR 
32nm W 
211737Z 2118/2218 22010KT P6SM VCSH SCT040 FM220000 21005KT P6SM FEW050 SCT200 FM220900 24005KT P6SM VCSH FEW010 SCT030 FM221500 31008KT P6SM VCTS BKN035CB
KMEM 
37nm S 
220254Z 2203/2306 19006KT P6SM SCT070 BKN250 FM221000 21005KT P6SM SCT010 BKN030 FM221500 26007KT P6SM SCT010 BKN250 FM221800 28007KT P6SM VCTS BKN040CB OVC150 FM222100 34011G20KT 5SM TSRA OVC035CB FM230300 02010KT P6SM VCTS BKN040CB
NOTAMs
Click for the latest NOTAMs
NOTAMs are issued by the DoD/FAA and will open in a separate window not controlled by AirNav.

 

 
 

FBO, Fuel Providers, and Aircraft Ground Support

  
 Business Name 
 
 Contact 
 
 Services / Description 
 
Fuel Prices
 
Comments
  
Sandy Bayou Planting Co. 870-838-5578
[email]
Airport management, Aviation fuel, Aircraft parking (ramp or tiedown), Hangars, Hangar leasing / sales, Passenger terminal and lounge, Pilot supplies, ...

More info about Sandy Bayou Planting Co.
independent
100LL
SS $4.15 
 Updated 03-Jul-2019
 
   2 read write
SS=Self service
Update Fuel Prices
 

Would you like to see your business listed on this page?

 If your business provides an interesting product or service to pilots, flight crews, aircraft, or users of the Osceola Municipal Airport, you should consider listing it here.  To start the listing process, click on the button below
 
Add a business
 

Other Pages about Osceola Municipal Airport

Update a link
 
Copyright © AirNav, LLC. All rights reserved. Privacy Policy  Contact